Terminal Aerodrome Forecast
Issued by NWS

Home | Current Version | Previous Version | Text Only | Print | Product List | Glossary On
Versions: 1 2 3 4 5 6 7 8 9 10 11 12 13 14 15 16 17 18
000
FTUS45 KLKN 292135 AAA
TAFWMC
TAF AMD
KWMC 292135Z 2922/3018 29008KT P6SM VCSH SCT060 BKN100
     FM292300 29010G18KT P6SM -SHRA VCTS SCT040 BKN060CB
     FM300200 33010G20KT 6SM -SHRA BR SCT020 BKN030
     FM300800 34010G20KT 5SM -SHRA SCT010 BKN020
     FM301400 36018G28KT P6SM VCSH SCT020 BKN035=

USA.gov is the U.S. government's official web portal to all federal, state and local government web resources and services.